STARLINK-1408 (45688 NORAD) Tracking and Keplerian Element Data

This shows tracking and keplerian element data for the satellite.

Feedback or suggestion? Click here.




ElementValue
Catalog45688
NameSTARLINK-1408
Epoch Orbit1072
Epoch Day218.91667824
Epoch Year2020
RAAN222.8208
Inclination52.9969
Eccentricity0.0001433
Argument of Perigee67.4996
Mean Anonmoly43.0283
Mean Motion15.17251642
Decay Rate-0.01064957
L11 45688U 20035AH 20218.91667824 -.01064957 00000-0 -57007-1 0 9991
L22 45688 52.9969 222.8208 0001433 67.4996 43.0283 15.17251642 10723

Live tracking and technical data element details for STARLINK-1408 (NORAD 45688). STARLINK-1408 can be tracked NOW for your location showing map with azimuth and elevation plus other details from your city location.

Track the satellite on the map from your city or location and see movement details for azimuth, elevation, latitude, longitude, range, height, and movement on the map or in text.







IsCatalogInMostPopularTable: catalog: 45688, numindb: 9
Update: records affected: 1



GetName: 45688 STARLINK-1408

Hit Count: updated at: Sat, 08 Aug 2020 00:27:17 GMT